Torna al catalogo

STARLINK-37802

AttivoComunicazioniSSO
NORAD 69318·PAYLOAD·🇺🇸 United States

Lanciato May 30, 2026 da Vandenberg Space Force Base

Loading…

Prossimi Passaggi (prossime 24 ore)

TLE

AggiornatoSource: CelesTrak SupGP

Epoca: Sep 14, 2026, 22:32 UTC

1 69318C 26119Y   26257.93937500  .00053534  00000+0  16621-2 0  2578
2 69318  97.2828 282.8293 0001352  88.7765 356.0276 15.33406611    11

Traccia STARLINK-37802 in tempo reale con AllMySat

Download on the App Store